| time (UTC) | temp F | wind direction | speed knots | gust knots | rain 1hr in | rain 24hr in | rain mn in | humidity % | barometer mb |
| 20260503033742 | 74 | 234 | 3.5 | 8.7 | 0.04 | 0.33 | 0.33 | 90 | 1014.3 |
| 20260503033242 | 73 | 252 | 3.5 | 6.1 | 0.04 | 0.32 | 0.32 | 90 | 1014.1 |
| 20260503032742 | 73 | 271 | 2.6 | 6.1 | 0.04 | 0.32 | 0.32 | 89 | 1013.9 |
| 20260503032242 | 73 | 259 | 2.6 | 6.1 | 0.05 | 0.32 | 0.32 | 89 | 1013.9 |
| 20260503031742 | 73 | 244 | 6.1 | 7.0 | 0.05 | 0.32 | 0.32 | 89 | 1013.3 |
| 20260503031242 | 73 | 251 | 1.7 | 7.0 | 0.06 | 0.32 | 0.32 | 89 | 1013.0 |
| 20260503030242 | 73 | 195 | 2.6 | 9.6 | 0.12 | 0.32 | 0.32 | 89 | 1012.2 |
| 20260503025742 | 73 | 223 | 4.3 | 9.6 | 0.12 | 0.31 | 0.31 | 89 | 1012.6 |
| 20260503024242 | 73 | 201 | 2.6 | 7.0 | 0.10 | 0.29 | 0.29 | 89 | 1012.7 |
| 20260503023742 | 73 | 219 | 3.5 | 5.2 | 0.10 | 0.29 | 0.29 | 89 | 1013.1 |
| 20260503023242 | 73 | 190 | 2.6 | 4.3 | 0.09 | 0.28 | 0.28 | 89 | 1013.2 |
| 20260503022242 | 73 | 213 | 0.9 | 7.0 | 0.08 | 0.27 | 0.27 | 89 | 1013.1 |
| 20260503021742 | 73 | 235 | 4.3 | 7.0 | 0.08 | 0.27 | 0.27 | 89 | 1013.3 |
| 20260503021242 | 73 | 229 | 4.3 | 6.1 | 0.07 | 0.26 | 0.26 | 89 | 1013.5 |
| 20260503020242 | 73 | 265 | 5.2 | 5.2 | 0.04 | 0.20 | 0.20 | 89 | 1013.9 |
| 20260503015242 | 73 | 277 | 0.0 | 2.6 | 0.05 | 0.19 | 0.19 | 89 | 1013.2 |
| 20260503014742 | 73 | 284 | 1.7 | 2.6 | 0.05 | 0.19 | 0.19 | 89 | 1013.3 |
| 20260503014242 | 73 | 271 | 1.7 | 2.6 | 0.05 | 0.19 | 0.19 | 89 | 1013.1 |
| 20260503013742 | 73 | 170 | 0.0 | 0.0 | 0.05 | 0.19 | 0.19 | 89 | 1013.0 |
| 20260503013242 | 73 | 170 | 0.0 | 1.7 | 0.05 | 0.19 | 0.19 | 89 | 1012.7 |
| 20260503012742 | 73 | 175 | 0.0 | 3.5 | 0.05 | 0.19 | 0.19 | 89 | 1012.7 |
| 20260503012242 | 73 | 176 | 0.0 | 3.5 | 0.05 | 0.19 | 0.19 | 89 | 1012.8 |
| 20260503011742 | 74 | 189 | 0.9 | 3.5 | 0.06 | 0.19 | 0.19 | 90 | 1012.9 |
| 20260503011242 | 74 | 196 | 0.0 | 3.5 | 0.07 | 0.19 | 0.19 | 89 | 1012.9 |
| 20260503010742 | 74 | 166 | 0.0 | 1.7 | 0.08 | 0.18 | 0.18 | 90 | 1013.0 |
| 20260503010242 | 74 | 143 | 0.9 | 3.5 | 0.07 | 0.16 | 0.16 | 89 | 1012.9 |
| 20260503004741 | 74 | 225 | 0.0 | 2.6 | 0.07 | 0.14 | 0.14 | 90 | 1012.9 |
| 20260503004242 | 74 | 199 | 0.0 | 0.0 | 0.07 | 0.14 | 0.14 | 90 | 1013.1 |
| 20260503003741 | 74 | 141 | 0.0 | 0.9 | 0.07 | 0.14 | 0.14 | 89 | 1012.8 |
| 20260503003242 | 74 | 141 | 0.0 | 0.9 | 0.07 | 0.14 | 0.14 | 89 | 1012.6 |
| 20260503002742 | 74 | 141 | 0.0 | 2.6 | 0.07 | 0.14 | 0.14 | 89 | 1012.6 |
| 20260503002241 | 74 | 141 | 0.0 | 2.6 | 0.07 | 0.14 | 0.14 | 89 | 1012.5 |
| 20260503001742 | 74 | 156 | 0.9 | 1.7 | 0.06 | 0.13 | 0.13 | 89 | 1012.5 |
| 20260503001241 | 74 | 152 | 0.0 | 5.2 | 0.05 | 0.12 | 0.12 | 89 | 1012.3 |
| 20260503000242 | 74 | 267 | 5.2 | 6.1 | 0.02 | 0.09 | 0.09 | 88 | 1012.9 |
| 20260502235741 | 75 | 267 | 0.9 | 7.0 | 0.01 | 0.08 | 0.08 | 88 | 1012.6 |
| 20260502235241 | 75 | 264 | 5.2 | 7.0 | 0.01 | 0.08 | 0.08 | 88 | 1012.8 |
| 20260502234741 | 75 | 248 | 1.7 | 6.1 | 0.00 | 0.07 | 0.07 | 88 | 1012.6 |
| 20260502234241 | 74 | 293 | 4.3 | 5.2 | 0.02 | 0.07 | 0.07 | 88 | 1012.6 |
| 20260502232741 | 74 | 301 | 0.0 | 6.1 | 0.07 | 0.07 | 0.07 | 88 | 1012.5 |
| 20260502232241 | 74 | 292 | 3.5 | 6.1 | 0.07 | 0.07 | 0.07 | 87 | 1012.4 |
| 20260502231741 | 74 | 339 | 1.7 | 5.2 | 0.07 | 0.07 | 0.07 | 87 | 1012.5 |
| 20260502230741 | 74 | 323 | 0.9 | 7.0 | 0.07 | 0.07 | 0.07 | 86 | 1012.4 |
| 20260502230241 | 74 | 315 | 0.9 | 9.6 | 0.07 | 0.07 | 0.07 | 85 | 1012.4 |
| 20260502225741 | 74 | 303 | 3.5 | 9.6 | 0.07 | 0.07 | 0.07 | 84 | 1012.4 |
| 20260502225241 | 75 | 316 | 2.6 | 10.4 | 0.07 | 0.07 | 0.07 | 83 | 1012.1 |
| 20260502224741 | 75 | 335 | 3.5 | 16.5 | 0.07 | 0.07 | 0.07 | 81 | 1012.1 |
| 20260502224241 | 77 | 310 | 7.0 | 16.5 | 0.05 | 0.05 | 0.05 | 78 | 1012.1 |
| 20260502223741 | 79 | 317 | 13.9 | 18.2 | 0.00 | 0.00 | 0.00 | 77 | 1012.0 |
| 20260502223241 | 81 | 300 | 9.6 | 18.2 | 0.00 | 0.00 | 0.00 | 81 | 1011.8 |
| 20260502222741 | 81 | 230 | 7.8 | 13.0 | 0.00 | 0.00 | 0.00 | 83 | 1011.1 |
| 20260502222241 | 82 | 218 | 7.0 | 13.0 | 0.00 | 0.00 | 0.00 | 83 | 1011.1 |
| 20260502221741 | 82 | 240 | 7.0 | 11.3 | 0.00 | 0.00 | 0.00 | 83 | 1011.0 |
| 20260502221241 | 82 | 242 | 7.8 | 12.2 | 0.00 | 0.00 | 0.00 | 83 | 1011.0 |
| 20260502220741 | 82 | 268 | 7.0 | 12.2 | 0.00 | 0.00 | 0.00 | 83 | 1011.0 |
| 20260502220241 | 82 | 225 | 4.3 | 10.4 | 0.00 | 0.00 | 0.00 | 82 | 1011.1 |
| 20260502215241 | 82 | 224 | 7.0 | 13.0 | 0.00 | 0.00 | 0.00 | 81 | 1011.1 |
| 20260502214741 | 82 | 245 | 9.6 | 13.0 | 0.00 | 0.00 | 0.00 | 80 | 1011.2 |
| 20260502214241 | 82 | 232 | 5.2 | 13.0 | 0.00 | 0.00 | 0.00 | 81 | 1011.2 |
| 20260502213240 | 82 | 252 | 9.6 | 13.0 | 0.00 | 0.00 | 0.00 | 80 | 1011.1 |
| 20260502212741 | 82 | 227 | 6.1 | 12.2 | 0.00 | 0.00 | 0.00 | 79 | 1011.0 |
| 20260502212241 | 82 | 249 | 8.7 | 12.2 | 0.00 | 0.00 | 0.00 | 79 | 1010.9 |
| 20260502211741 | 82 | 219 | 10.4 | 12.2 | 0.00 | 0.00 | 0.00 | 79 | 1010.8 |
| 20260502211241 | 82 | 275 | 8.7 | 12.2 | 0.00 | 0.00 | 0.00 | 78 | 1010.8 |
| 20260502210241 | 83 | 252 | 10.4 | 12.2 | 0.00 | 0.00 | 0.00 | 79 | 1010.7 |
| 20260502205241 | 83 | 211 | 8.7 | 13.0 | 0.00 | 0.00 | 0.00 | 77 | 1010.7 |
| 20260502204741 | 83 | 200 | 6.1 | 11.3 | 0.00 | 0.00 | 0.00 | 75 | 1010.7 |
| 20260502204240 | 84 | 225 | 6.1 | 13.0 | 0.00 | 0.00 | 0.00 | 75 | 1010.7 |
| 20260502203740 | 84 | 249 | 4.3 | 13.9 | 0.00 | 0.00 | 0.00 | 75 | 1010.6 |
| 20260502203241 | 84 | 231 | 13.0 | 13.9 | 0.00 | 0.00 | 0.00 | 73 | 1010.6 |
| 20260502202810 | 84 | 239 | 4.3 | 13.9 | 0.00 | 0.00 | 0.00 | 74 | 1010.7 |
| 20260502201810 | 84 | 243 | 9.6 | 11.3 | 0.00 | 0.00 | 0.00 | 74 | 1010.8 |
| 20260502201310 | 84 | 228 | 10.4 | 14.8 | 0.00 | 0.00 | 0.00 | 73 | 1010.8 |
| 20260502200810 | 84 | 251 | 10.4 | 14.8 | 0.00 | 0.00 | 0.00 | 72 | 1010.7 |
| 20260502200310 | 84 | 260 | 5.2 | 13.0 | 0.00 | 0.00 | 0.00 | 74 | 1010.7 |
| 20260502195310 | 84 | 233 | 8.7 | 13.0 | 0.00 | 0.00 | 0.00 | 73 | 1010.5 |
| 20260502194810 | 84 | 230 | 9.6 | 14.8 | 0.00 | 0.00 | 0.00 | 74 | 1010.5 |
| 20260502194310 | 84 | 232 | 4.3 | 14.8 | 0.00 | 0.00 | 0.00 | 73 | 1010.5 |
| 20260502193810 | 85 | 241 | 7.8 | 13.0 | 0.00 | 0.00 | 0.00 | 73 | 1010.6 |
| 20260502192810 | 84 | 219 | 5.2 | 12.2 | 0.00 | 0.00 | 0.00 | 74 | 1010.8 |
| 20260502192310 | 84 | 236 | 5.2 | 12.2 | 0.00 | 0.00 | 0.00 | 76 | 1010.9 |
| 20260502191810 | 84 | 236 | 9.6 | 13.9 | 0.00 | 0.00 | 0.00 | 75 | 1010.9 |
| 20260502191310 | 84 | 198 | 7.0 | 13.9 | 0.00 | 0.00 | 0.00 | 75 | 1011.1 |
| 20260502190810 | 84 | 222 | 12.2 | 13.0 | 0.00 | 0.00 | 0.00 | 76 | 1011.1 |
| 20260502190310 | 84 | 250 | 8.7 | 13.0 | 0.00 | 0.00 | 0.00 | 76 | 1011.1 |
| 20260502185310 | 84 | 198 | 4.3 | 14.8 | 0.00 | 0.00 | 0.00 | 77 | 1011.4 |
| 20260502184810 | 84 | 248 | 9.6 | 14.8 | 0.00 | 0.00 | 0.00 | 77 | 1011.5 |
| 20260502184310 | 84 | 194 | 8.7 | 13.9 | 0.00 | 0.00 | 0.00 | 77 | 1011.5 |
| 20260502183810 | 84 | 237 | 11.3 | 13.9 | 0.00 | 0.00 | 0.00 | 78 | 1011.5 |
| 20260502183310 | 84 | 228 | 6.1 | 12.2 | 0.00 | 0.00 | 0.00 | 78 | 1011.6 |
| 20260502181810 | 84 | 240 | 3.5 | 13.9 | 0.00 | 0.00 | 0.00 | 78 | 1011.8 |
| 20260502181310 | 84 | 227 | 7.8 | 14.8 | 0.00 | 0.00 | 0.00 | 78 | 1011.8 |
| 20260502180810 | 84 | 239 | 9.6 | 14.8 | 0.00 | 0.00 | 0.00 | 79 | 1011.8 |
| 20260502180310 | 83 | 243 | 7.0 | 13.0 | 0.00 | 0.00 | 0.00 | 79 | 1011.8 |
| 20260502170311 | 83 | 250 | 9.6 | 13.9 | 0.00 | 0.00 | 0.00 | 80 | 1012.1 |
| 20260502164309 | 83 | 244 | 8.7 | 18.2 | 0.00 | 0.00 | 0.00 | 80 | 1012.0 |
| 20260502163809 | 83 | 234 | 7.8 | 18.2 | 0.00 | 0.00 | 0.00 | 80 | 1012.1 |
| 20260502163309 | 83 | 242 | 7.8 | 15.6 | 0.00 | 0.00 | 0.00 | 81 | 1012.1 |
| 20260502162810 | 83 | 238 | 13.0 | 15.6 | 0.00 | 0.00 | 0.00 | 81 | 1012.0 |
| 20260502161809 | 83 | 259 | 8.7 | 16.5 | 0.00 | 0.00 | 0.00 | 81 | 1012.0 |
| 20260502161309 | 83 | 182 | 6.1 | 14.8 | 0.00 | 0.00 | 0.00 | 80 | 1012.0 |
| 20260502160809 | 83 | 252 | 6.1 | 13.9 | 0.00 | 0.00 | 0.00 | 81 | 1011.9 |
| 20260502152309 | 83 | 181 | 7.8 | 14.8 | 0.00 | 0.00 | 0.00 | 82 | 1011.7 |
| 20260502151809 | 83 | 222 | 5.2 | 13.0 | 0.00 | 0.00 | 0.00 | 82 | 1011.7 |
| 20260502151309 | 83 | 223 | 6.1 | 13.0 | 0.00 | 0.00 | 0.00 | 82 | 1011.6 |
| 20260502150809 | 83 | 194 | 9.6 | 13.0 | 0.00 | 0.00 | 0.00 | 82 | 1011.7 |
| 20260502150309 | 83 | 250 | 10.4 | 13.0 | 0.00 | 0.00 | 0.00 | 81 | 1011.6 |
| 20260502130309 | 80 | 198 | 7.8 | 10.4 | 0.00 | 0.00 | 0.00 | 87 | 1011.0 |
| 20260502123308 | 79 | 174 | 8.7 | 10.4 | 0.00 | 0.00 | 0.00 | 87 | 1010.9 |
| 20260502122809 | 79 | 172 | 6.1 | 9.6 | 0.00 | 0.00 | 0.00 | 88 | 1010.9 |
| 20260502122308 | 79 | 203 | 4.3 | 11.3 | 0.00 | 0.00 | 0.00 | 89 | 1010.8 |
| 20260502121809 | 78 | 220 | 4.3 | 11.3 | 0.00 | 0.00 | 0.00 | 90 | 1010.8 |
| 20260502121309 | 77 | 217 | 6.1 | 7.0 | 0.00 | 0.00 | 0.00 | 91 | 1010.7 |
| 20260502120808 | 76 | 133 | 0.0 | 5.2 | 0.00 | 0.00 | 0.00 | 90 | 1010.8 |
| 20260502120308 | 75 | 128 | 2.6 | 3.5 | 0.00 | 0.00 | 0.00 | 90 | 1010.8 |
| 20260502115808 | 75 | 112 | 1.7 | 3.5 | 0.00 | 0.00 | 0.00 | 90 | 1010.8 |
| 20260502115308 | 75 | 132 | 1.7 | 3.5 | 0.00 | 0.00 | 0.00 | 90 | 1010.8 |
| 20260502114808 | 75 | 121 | 1.7 | 3.5 | 0.00 | 0.00 | 0.00 | 90 | 1010.7 |
| 20260502114308 | 75 | 146 | 0.0 | 3.5 | 0.00 | 0.00 | 0.00 | 90 | 1010.7 |
| 20260502113808 | 74 | 108 | 0.9 | 2.6 | 0.00 | 0.00 | 0.00 | 90 | 1010.7 |
| 20260502113308 | 74 | 127 | 2.6 | 2.6 | 0.00 | 0.00 | 0.00 | 90 | 1010.7 |
| 20260502112808 | 74 | 128 | 1.7 | 4.3 | 0.00 | 0.00 | 0.00 | 90 | 1010.7 |
| 20260502112308 | 74 | 103 | 1.7 | 4.3 | 0.00 | 0.00 | 0.00 | 90 | 1010.8 |
| 20260502111808 | 74 | 118 | 1.7 | 3.5 | 0.00 | 0.00 | 0.00 | 90 | 1010.8 |
| 20260502111308 | 74 | 105 | 0.0 | 2.6 | 0.00 | 0.00 | 0.00 | 90 | 1010.9 |
| 20260502110308 | 74 | 136 | 0.9 | 3.5 | 0.00 | 0.00 | 0.00 | 90 | 1010.7 |
| 20260502105308 | 74 | 139 | 0.0 | 0.0 | 0.00 | 0.00 | 0.00 | 90 | 1010.8 |
| 20260502104308 | 74 | 126 | 0.0 | 2.6 | 0.00 | 0.00 | 0.00 | 90 | 1010.7 |
| 20260502103808 | 74 | 123 | 0.0 | 2.6 | 0.00 | 0.00 | 0.00 | 90 | 1010.8 |
| 20260502103308 | 74 | 111 | 0.0 | 2.6 | 0.00 | 0.00 | 0.00 | 89 | 1010.6 |
| 20260502102808 | 73 | 128 | 1.7 | 2.6 | 0.00 | 0.00 | 0.00 | 89 | 1010.6 |
| 20260502102308 | 73 | 126 | 0.0 | 2.6 | 0.00 | 0.00 | 0.00 | 89 | 1010.7 |
| 20260502101808 | 73 | 149 | 0.0 | 3.5 | 0.00 | 0.00 | 0.00 | 89 | 1010.6 |
| 20260502100808 | 73 | 126 | 1.7 | 3.5 | 0.00 | 0.00 | 0.00 | 89 | 1010.7 |
| 20260502100308 | 73 | 146 | 1.7 | 3.5 | 0.00 | 0.00 | 0.00 | 89 | 1010.8 |
| 20260502091307 | 73 | 120 | 0.0 | 3.5 | 0.00 | 0.00 | 0.00 | 88 | 1011.0 |
| 20260502090808 | 74 | 130 | 1.7 | 3.5 | 0.00 | 0.00 | 0.00 | 88 | 1011.0 |
| 20260502090308 | 74 | 149 | 1.7 | 2.6 | 0.00 | 0.00 | 0.00 | 87 | 1011.0 |
| 20260502071307 | 74 | 329 | 0.0 | 0.0 | 0.00 | 0.00 | 0.00 | 86 | 1011.0 |
| 20260502070807 | 74 | 329 | 0.0 | 0.0 | 0.00 | 0.00 | 0.00 | 86 | 1011.0 |
| 20260502070307 | 74 | 329 | 0.0 | 0.0 | 0.00 | 0.00 | 0.00 | 86 | 1011.0 |
| 20260502065807 | 74 | 329 | 0.0 | 0.0 | 0.00 | 0.00 | 0.00 | 86 | 1011.1 |
| 20260502065307 | 74 | 329 | 0.0 | 0.0 | 0.00 | 0.00 | 0.00 | 85 | 1011.0 |
| 20260502064807 | 74 | 329 | 0.0 | 0.0 | 0.00 | 0.00 | 0.00 | 85 | 1011.0 |
| 20260502063807 | 75 | 329 | 0.0 | 0.0 | 0.00 | 0.00 | 0.00 | 85 | 1011.1 |
| 20260502063307 | 75 | 329 | 0.0 | 0.0 | 0.00 | 0.00 | 0.00 | 84 | 1011.1 |
| 20260502062807 | 75 | 329 | 0.0 | 0.0 | 0.00 | 0.00 | 0.00 | 85 | 1011.0 |
| 20260502062307 | 75 | 329 | 0.0 | 0.0 | 0.00 | 0.00 | 0.00 | 84 | 1011.0 |
| 20260502061807 | 75 | 329 | 0.0 | 0.0 | 0.00 | 0.00 | 0.00 | 84 | 1011.0 |
| 20260502061307 | 75 | 329 | 0.0 | 0.0 | 0.00 | 0.00 | 0.00 | 84 | 1011.0 |
| 20260502060307 | 75 | 329 | 0.0 | 0.0 | 0.00 | 0.00 | 0.00 | 83 | 1011.1 |
| 20260502055807 | 75 | 329 | 0.0 | 0.0 | 0.00 | 0.00 | 0.00 | 83 | 1011.2 |
| 20260502055307 | 75 | 329 | 0.0 | 0.0 | 0.00 | 0.00 | 0.00 | 82 | 1011.3 |
| 20260502054806 | 75 | 329 | 0.0 | 0.0 | 0.00 | 0.00 | 0.00 | 82 | 1011.3 |
| 20260502054307 | 75 | 329 | 0.0 | 0.0 | 0.00 | 0.00 | 0.00 | 82 | 1011.4 |
| 20260502053806 | 76 | 329 | 0.0 | 0.0 | 0.00 | 0.00 | 0.00 | 82 | 1011.4 |
| 20260502053307 | 76 | 329 | 0.0 | 0.0 | 0.00 | 0.00 | 0.00 | 82 | 1011.4 |
| 20260502052806 | 76 | 329 | 0.0 | 0.0 | 0.00 | 0.00 | 0.00 | 81 | 1011.5 |
| 20260502052307 | 76 | 329 | 0.0 | 0.0 | 0.00 | 0.00 | 0.00 | 81 | 1011.5 |
| 20260502051806 | 76 | 329 | 0.0 | 0.0 | 0.00 | 0.00 | 0.00 | 81 | 1011.6 |
| 20260502050806 | 76 | 329 | 0.0 | 1.7 | 0.00 | 0.00 | 0.00 | 80 | 1011.7 |
| 20260502050307 | 76 | 329 | 0.9 | 1.7 | 0.00 | 0.00 | 0.00 | 80 | 1011.7 |
| 20260502045807 | 76 | 329 | 0.0 | 1.7 | 0.00 | 0.00 | 0.00 | 80 | 1011.7 |
| 20260502045307 | 76 | 279 | 0.0 | 0.9 | 0.00 | 0.00 | 0.00 | 80 | 1011.8 |
| 20260502044807 | 77 | 267 | 0.0 | 0.9 | 0.00 | 0.00 | 0.00 | 79 | 1011.7 |
| 20260502044306 | 77 | 265 | 0.0 | 0.0 | 0.00 | 0.00 | 0.00 | 79 | 1011.6 |
| 20260502043806 | 77 | 261 | 0.0 | 0.0 | 0.00 | 0.00 | 0.00 | 79 | 1011.6 |
| 20260502043306 | 77 | 259 | 0.0 | 2.6 | 0.00 | 0.00 | 0.00 | 79 | 1011.6 |
| 20260502042806 | 77 | 259 | 0.0 | 2.6 | 0.00 | 0.00 | 0.00 | 78 | 1011.7 |
| 20260502042306 | 77 | 259 | 0.9 | 3.5 | 0.00 | 0.00 | 0.00 | 79 | 1011.7 |
| 20260502041806 | 77 | 254 | 1.7 | 3.5 | 0.00 | 0.00 | 0.00 | 78 | 1011.7 |
| 20260502041306 | 77 | 268 | 0.0 | 1.7 | 0.00 | 0.00 | 0.00 | 79 | 1011.7 |
| 20260502040806 | 77 | 263 | 0.9 | 3.5 | 0.00 | 0.00 | 0.00 | 79 | 1011.6 |
| 20260502040306 | 77 | 252 | 0.0 | 3.5 | 0.00 | 0.00 | 0.00 | 79 | 1011.7 |
| 20260502035806 | 77 | 238 | 0.0 | 3.5 | 0.00 | 0.00 | 0.00 | 79 | 1011.7 |
| 20260502035307 | 77 | 246 | 1.7 | 3.5 | 0.00 | 0.00 | 0.00 | 78 | 1011.7 |
| 20260502034806 | 77 | 254 | 0.0 | 2.6 | 0.00 | 0.00 | 0.00 | 79 | 1011.8 |
| 20260502034306 | 77 | 236 | 0.9 | 2.6 | 0.00 | 0.00 | 0.00 | 79 | 1011.7 |